map of DGO home
DGO - Airport
Location
City:  Durango, Durango, México
Name:General Guadalupe Victoria International Airport
ICAO:MMDO
IATA:DGO

Details
Type:Airport (Aerodrome, Airfield)
Use:Public/Civil, International (customs port of entry)
Latitude:24°07'27"N (24.124194)
Longitude:104°31'41"W (-104.528013)
Datum:WGS 1984
Elevation:6104 ft (1860 m)
Variation:6.64°E (WMM2015v2 magnetic declination)
-0.10° annual change
Runways:1
Longest:9514 × 148 ft (2900 × 45 m), paved

Time
Time Zone:UTC-6 (DST-5)
Local Time:

Weather
METAR:MMDO 041351Z 13006KT 10SM SCT030 BKN080 BKN200 11/05 A3019 RMK 8/878

Related Locations
Nearby:
Farthest:RRG: 11612 mi / 18688 km
Plaine Corail [Sir Gaëtan Duval Airport (Plaine Corail Airport)], Rodrigues Island, MU

Find:

   beyond  
but within

Other Information
Maps:
NOTAMs:
Links:
Sources:

  
  • flag of México
  • flag of Durango
  

Sectional Chart

Flight Planning
at skyvector.com

Satellite Image

Google Maps Satellite view

 

Copyright © 2004-2019 Karl L. Swartz. All rights reserved.
The Great Circle Mapper name and logo are trademarks of the Great Circle Mapper.
All other trademarks mentioned herein belong to their respective owners.
Please see credits for attibutions and further copyright information.

  Follow gcmap on Facebook Follow gcmap on Twitter GCmap on LinkedIn

hCard Microformat

Geo Microformat